| time (UTC) | temp F | wind direction | speed MPH | gust MPH | rain 1hr in | rain 24hr in | rain mn in | humidity % | barometer mb |
| 20260507150905 | 67 | 74 | 7.0 | 12.0 | 0.00 | 0.09 | 0.01 | 56 | 1011.4 |
| 20260507150404 | 67 | 87 | 5.0 | 12.0 | 0.00 | 0.09 | 0.01 | 54 | 1011.3 |
| 20260507143905 | 67 | 89 | 6.0 | 12.0 | 0.00 | 0.09 | 0.01 | 54 | 1011.3 |
| 20260507143404 | 67 | 82 | 7.0 | 12.0 | 0.00 | 0.09 | 0.01 | 54 | 1011.4 |
| 20260507140904 | 66 | 123 | 5.0 | 10.0 | 0.00 | 0.09 | 0.01 | 52 | 1011.8 |
| 20260507140404 | 66 | 90 | 7.0 | 15.0 | 0.00 | 0.09 | 0.01 | 53 | 1011.8 |
| 20260507133404 | 66 | 115 | 10.0 | 15.0 | 0.00 | 0.09 | 0.01 | 54 | 1012.1 |
| 20260507130905 | 66 | 99 | 9.0 | 15.0 | 0.00 | 0.09 | 0.01 | 52 | 1012.4 |
| 20260507130404 | 67 | 94 | 13.0 | 17.0 | 0.00 | 0.09 | 0.01 | 51 | 1012.5 |
| 20260507123904 | 65 | 95 | 10.0 | 16.0 | 0.00 | 0.09 | 0.01 | 53 | 1012.6 |
| 20260507123404 | 66 | 118 | 12.0 | 20.0 | 0.00 | 0.09 | 0.01 | 53 | 1012.7 |
| 20260507120904 | 65 | 101 | 10.0 | 16.0 | 0.00 | 0.09 | 0.01 | 53 | 1012.6 |
| 20260507120405 | 66 | 117 | 11.0 | 16.0 | 0.00 | 0.09 | 0.01 | 52 | 1012.6 |
| 20260507113906 | 67 | 107 | 9.0 | 12.0 | 0.00 | 0.09 | 0.01 | 55 | 1012.5 |
| 20260507113404 | 67 | 94 | 7.0 | 12.0 | 0.00 | 0.09 | 0.01 | 55 | 1012.6 |
| 20260507110905 | 66 | 86 | 6.0 | 12.0 | 0.00 | 0.09 | 0.01 | 57 | 1012.9 |
| 20260507110405 | 66 | 121 | 6.0 | 12.0 | 0.00 | 0.09 | 0.01 | 57 | 1012.9 |
| 20260507103405 | 68 | 120 | 7.0 | 10.0 | 0.00 | 0.09 | 0.01 | 52 | 1013.0 |
| 20260507100405 | 65 | 134 | 3.0 | 10.0 | 0.00 | 0.09 | 0.01 | 60 | 1013.2 |
| 20260507093904 | 67 | 118 | 1.0 | 3.0 | 0.00 | 0.09 | 0.01 | 64 | 1013.3 |
| 20260507093404 | 67 | 123 | 1.0 | 5.0 | 0.00 | 0.09 | 0.01 | 65 | 1013.3 |
| 20260507090905 | 67 | 155 | 2.0 | 6.0 | 0.00 | 0.09 | 0.01 | 65 | 1013.2 |
| 20260507090404 | 67 | 214 | 1.0 | 3.0 | 0.00 | 0.09 | 0.01 | 66 | 1013.2 |
| 20260507083405 | 64 | 69 | 1.0 | 7.0 | 0.00 | 0.09 | 0.01 | 71 | 1013.1 |
| 20260507080905 | 62 | 86 | 1.0 | 6.0 | 0.00 | 0.09 | 0.01 | 81 | 1013.4 |
| 20260507080405 | 61 | 108 | 1.0 | 6.0 | 0.00 | 0.09 | 0.01 | 82 | 1013.4 |
| 20260507073904 | 59 | 62 | 1.0 | 3.0 | 0.00 | 0.09 | 0.01 | 87 | 1013.6 |
| 20260507073405 | 58 | 260 | 1.0 | 3.0 | 0.00 | 0.09 | 0.01 | 87 | 1013.6 |
| 20260507070905 | 56 | 296 | 0.0 | 3.0 | 0.00 | 0.09 | 0.01 | 87 | 1013.4 |
| 20260507070403 | 56 | 311 | 1.0 | 2.0 | 0.00 | 0.09 | 0.01 | 87 | 1013.4 |
| 20260507063905 | 55 | 271 | 0.0 | 2.0 | 0.00 | 0.09 | 0.01 | 87 | 1013.2 |
| 20260507063403 | 55 | 201 | 0.0 | 0.0 | 0.00 | 0.09 | 0.01 | 87 | 1013.3 |
| 20260507060904 | 52 | 210 | 0.0 | 1.0 | 0.00 | 0.09 | 0.01 | 87 | 1013.2 |
| 20260507060404 | 51 | 157 | 0.0 | 1.0 | 0.00 | 0.09 | 0.01 | 87 | 1013.3 |
| 20260507053903 | 49 | 134 | 0.0 | 1.0 | 0.00 | 0.09 | 0.01 | 88 | 1013.0 |
| 20260507053405 | 48 | 109 | 0.0 | 2.0 | 0.00 | 0.09 | 0.01 | 87 | 1012.9 |
| 20260507050905 | 48 | 197 | 0.0 | 0.0 | 0.00 | 0.09 | 0.01 | 88 | 1012.9 |
| 20260507043904 | 48 | 0 | 0.0 | 1.0 | 0.00 | 0.09 | 0.01 | 87 | 1012.6 |
| 20260507043405 | 48 | 0 | 0.0 | 1.0 | 0.00 | 0.09 | 0.01 | 87 | 1012.6 |
| 20260507040905 | 49 | 7 | 0.0 | 0.0 | 0.00 | 0.09 | 0.01 | 87 | 1012.6 |
| 20260507040404 | 49 | 146 | 0.0 | 2.0 | 0.00 | 0.09 | 0.01 | 87 | 1012.7 |
| 20260507033905 | 49 | 146 | 2.0 | 3.0 | 0.00 | 0.09 | 0.01 | 87 | 1012.7 |
| 20260507033404 | 49 | 67 | 0.0 | 3.0 | 0.00 | 0.09 | 0.01 | 87 | 1012.7 |
| 20260507030904 | 50 | 0 | 2.0 | 3.0 | 0.00 | 0.09 | 0.01 | 87 | 1012.6 |
| 20260507030404 | 50 | 0 | 0.0 | 0.0 | 0.00 | 0.09 | 0.01 | 87 | 1012.6 |
| 20260507023904 | 51 | 0 | 0.0 | 0.0 | 0.01 | 0.09 | 0.01 | 87 | 1012.6 |
| 20260507023404 | 51 | 172 | 0.0 | 3.0 | 0.01 | 0.09 | 0.01 | 87 | 1012.6 |
| 20260507020904 | 52 | 248 | 0.0 | 1.0 | 0.01 | 0.09 | 0.01 | 87 | 1012.6 |
| 20260507013904 | 53 | 238 | 2.0 | 3.0 | 0.00 | 0.08 | 0.00 | 87 | 1012.8 |
| 20260507013404 | 53 | 238 | 0.0 | 3.0 | 0.00 | 0.08 | 0.00 | 87 | 1012.8 |
| 20260507010905 | 53 | 264 | 0.0 | 1.0 | 0.00 | 0.08 | 0.00 | 87 | 1012.9 |
| 20260507010405 | 53 | 264 | 0.0 | 3.0 | 0.00 | 0.08 | 0.00 | 87 | 1013.0 |
| 20260507003905 | 53 | 165 | 2.0 | 3.0 | 0.00 | 0.08 | 0.00 | 87 | 1013.3 |
| 20260507003404 | 54 | 166 | 2.0 | 3.0 | 0.00 | 0.08 | 0.00 | 87 | 1013.2 |
| 20260507000903 | 54 | 262 | 0.0 | 2.0 | 0.00 | 0.09 | 0.00 | 87 | 1013.4 |
| 20260507000405 | 54 | 273 | 0.0 | 3.0 | 0.00 | 0.09 | 0.00 | 87 | 1013.4 |
| 20260506233903 | 55 | 238 | 1.0 | 3.0 | 0.00 | 0.09 | 0.00 | 87 | 1013.4 |
| 20260506233404 | 55 | 283 | 3.0 | 5.0 | 0.00 | 0.09 | 0.00 | 87 | 1013.4 |
| 20260506230904 | 56 | 109 | 0.0 | 0.0 | 0.00 | 0.09 | 0.00 | 87 | 1013.5 |
| 20260506223404 | 56 | 325 | 1.0 | 5.0 | 0.00 | 0.09 | 0.00 | 86 | 1013.5 |
| 20260506213905 | 57 | 284 | 0.0 | 2.0 | 0.00 | 0.09 | 0.09 | 86 | 1013.4 |
| 20260506213405 | 57 | 284 | 1.0 | 3.0 | 0.00 | 0.09 | 0.09 | 86 | 1013.5 |
| 20260506210904 | 58 | 252 | 0.0 | 0.0 | 0.00 | 0.09 | 0.09 | 86 | 1013.3 |
| 20260506210405 | 58 | 252 | 0.0 | 0.0 | 0.00 | 0.09 | 0.09 | 86 | 1013.4 |
| 20260506203904 | 58 | 265 | 0.0 | 1.0 | 0.00 | 0.09 | 0.09 | 86 | 1013.2 |
| 20260506203404 | 58 | 337 | 1.0 | 3.0 | 0.00 | 0.09 | 0.09 | 86 | 1013.1 |
| 20260506200905 | 58 | 283 | 1.0 | 3.0 | 0.07 | 0.09 | 0.09 | 85 | 1012.7 |
| 20260506200404 | 58 | 324 | 1.0 | 3.0 | 0.08 | 0.09 | 0.09 | 85 | 1012.7 |
| 20260506193904 | 60 | 245 | 1.0 | 3.0 | 0.08 | 0.09 | 0.09 | 84 | 1012.3 |
| 20260506193405 | 60 | 275 | 2.0 | 3.0 | 0.08 | 0.09 | 0.09 | 83 | 1012.2 |
| 20260506190905 | 60 | 308 | 2.0 | 3.0 | 0.01 | 0.02 | 0.02 | 81 | 1011.9 |
| 20260506190403 | 60 | 295 | 1.0 | 5.0 | 0.00 | 0.01 | 0.01 | 81 | 1011.8 |
| 20260506183905 | 61 | 267 | 1.0 | 3.0 | 0.00 | 0.01 | 0.01 | 81 | 1011.3 |
| 20260506180904 | 61 | 148 | 6.0 | 10.0 | 0.00 | 0.01 | 0.01 | 80 | 1010.9 |
| 20260506180405 | 61 | 150 | 8.0 | 17.0 | 0.00 | 0.01 | 0.01 | 80 | 1010.8 |
| 20260506173904 | 61 | 148 | 7.0 | 12.0 | 0.00 | 0.01 | 0.01 | 79 | 1010.7 |
| 20260506173404 | 61 | 145 | 6.0 | 16.0 | 0.00 | 0.01 | 0.01 | 78 | 1010.6 |
| 20260506170403 | 62 | 154 | 13.0 | 20.0 | 0.00 | 0.01 | 0.01 | 77 | 1010.5 |
| 20260506163905 | 63 | 160 | 9.0 | 16.0 | 0.00 | 0.01 | 0.01 | 75 | 1010.4 |
| 20260506163404 | 63 | 161 | 10.0 | 21.0 | 0.00 | 0.01 | 0.01 | 75 | 1010.3 |
| 20260506160904 | 63 | 129 | 10.0 | 15.0 | 0.00 | 0.01 | 0.01 | 75 | 1010.1 |
| 20260506160405 | 63 | 133 | 10.0 | 21.0 | 0.00 | 0.01 | 0.01 | 75 | 1010.1 |
| 20260506153905 | 64 | 149 | 14.0 | 22.0 | 0.00 | 0.01 | 0.01 | 71 | 1010.2 |